CZ-6A DEB

Satellite information

Favourite Embed

Satellite Type and Status

DEBRISIN ORBIT

Key statistics

Satellite CZ-6A DEB at a glance.

Uptime

1070

Days in orbit

Revolutions

≈ 14.8

Per day

Orbit

SSO

Sun Synchronous Orbit

Inclination

98.7

Latest

Satellite identification and parameters

Extended collection of information and parameters for CZ-6A DEB.

Object identification

Identified? True

Debris? True

Object name: CZ-6A DEB

International designator: 2022-151N

Object number (NORAD): 54271

Object ID (CCSDS): 54271

Country: PEOPLES REPUBLIC OF CHINA (PRC)

Current information (Y/N): Y

RCS size: SMALL

Orbital parameters

Period: 97.419 minutes

Inclination: 98.7095 deg

SMA: 7013.309 km

Apoapsis: 678.45 km

Periapsis: 591.899 km

RAAN: 309.8549 deg

Eccentricy: 0.0061705

Argument of periapsis: 125.4328 deg

Mean anomaly: 235.2663 deg

Mean motion: 14.78149216 rev/day

Mean motion (dot): 0.00091292 rev/day2

B* drag term: 0.012071 1/REarth

Two-line elements (TLE)

Creation date: Oct. 16, 2025, 12:06 a.m.

Reference frame: TEME

Reference center: EARTH

Epoch: Oct. 15, 2025, 12:55 p.m. UTC

TLE line 0: 0 CZ-6A DEB

TLE line 1: 1 54271U 22151N 25288.53846289 .00091292 00000-0 12071-1 0 9995

TLE line 2: 2 54271 98.7095 309.8549 0061705 125.4328 235.2663 14.78149216 74473

Live tracking on map

Real-time ground track for satellite CZ-6A DEB.

In-orbit conjunctions

A list of the most updated potential collisions computed for object CZ-6A DEB.

Target Orbit TCA Probability of collision Miss distance Type
SCOUT G-1 R/B LEO 2024-09-27 05:20:59 0.0002293045 113.0 (m) ROCKET BODY
CZ-6A DEB SSO 2024-06-22 05:44:48 0.0002693573 118.0 (m) DEBRIS

Associated space launch

Chinese satellite reported for atmospheric/ocean/environmental/spatial parameter research purposes, details TBD.

CZ-6A DEB was lifted into orbit during the mission ‘Long March 6A | Yunhai 3’, on board a Long March 6A space rocket.

The launch took place on Nov. 11, 2022, 10:52 p.m. from Launch Complex 9A.

For more information about the launch, click the button.

Launch to space Long March 6A | Yunhai 3
Long March 6A | Yunhai 3

Agency: N/A

Status: Launch Successful

Launch date: Nov. 11, 2022, 10:52 p.m. UTC

Rocket: Long March 6A

Launch pad: Launch Complex 9A

Location: Taiyuan Satellite Launch Center, People's Republic of China

...

Latest news about this satellite

There are no fresh news available about this satellite. Check back as we update our databases every day.


Newsletter sign-up

Weekly statistics, charts and insights to help you stay on top of the space industry.